Location: Stoke Bliss
(52.2667°N, 2.5167°W)
Time: 07:37:00
(UTC+00:00)

Envisat - Pass Details

Date: 09 December 2021
Orbit: 764 x 766 km, 98.2° (Epoch: 17 January)

Event Time Altitude Azimuth Distance (km) Brightness Sun altitude
Rises 17:04:05 0° 195° (SSW) 3,222 6.9 -9.5°
Reaches altitude 10° 17:06:39 10° 206° (SSW) 2,301 6.3 -9.9°
Maximum altitude 17:11:05 30° 267° (W) 1,359 5.1 -10.5°
Drops below altitude 10° 17:15:33 10° 328° (NNW) 2,316 5.6 -11.1°
Sets 17:18:09 0° 339° (NNW) 3,247 6.2 -11.5°
